TimeEST,TemperatureF,Dew PointF,Humidity,Sea Level PressureIn,VisibilityMPH,Wind Direction,Wind SpeedMPH,Gust SpeedMPH,PrecipitationIn,Events,Conditions,WindDirDegrees,DateUTC
12:15 AM,32.4,28.4,85,29.85,10.0,SW,6.9,-,N/A,,Overcast,220,2013-02-23 05:15:00
12:34 AM,32.4,28.0,84,29.85,10.0,SW,9.2,-,N/A,,Overcast,220,2013-02-23 05:34:00
12:54 AM,32.4,28.0,84,29.85,10.0,SSW,6.9,-,N/A,,Overcast,200,2013-02-23 05:54:00
1:14 AM,32.0,27.9,85,29.85,10.0,SSW,5.8,-,N/A,,Overcast,210,2013-02-23 06:14:00
1:34 AM,32.0,27.5,83,29.85,10.0,SSW,6.9,-,N/A,,Overcast,210,2013-02-23 06:34:00
1:54 AM,32.0,27.3,83,29.85,10.0,SW,11.5,-,N/A,,Overcast,220,2013-02-23 06:54:00
2:14 AM,32.0,26.2,79,29.85,10.0,SW,13.8,19.6,N/A,,Overcast,220,2013-02-23 07:14:00
2:35 AM,32.0,25.5,77,29.85,10.0,SW,6.9,-,N/A,,Overcast,230,2013-02-23 07:35:00
2:54 AM,32.0,24.8,75,29.85,10.0,WSW,11.5,17.3,N/A,,Overcast,240,2013-02-23 07:54:00
3:14 AM,31.5,23.5,73,29.84,10.0,SW,11.5,16.1,N/A,,Overcast,230,2013-02-23 08:14:00
3:35 AM,30.9,22.8,72,29.84,10.0,WSW,13.8,17.3,N/A,,Overcast,240,2013-02-23 08:35:00
3:54 AM,30.2,23.0,75,29.84,10.0,SW,10.4,-,N/A,,Overcast,230,2013-02-23 08:54:00
4:14 AM,30.2,22.6,73,29.84,10.0,SW,10.4,-,N/A,,Overcast,220,2013-02-23 09:14:00
4:35 AM,30.0,22.1,72,29.84,10.0,SW,9.2,-,N/A,,Overcast,230,2013-02-23 09:35:00
4:54 AM,29.8,21.6,71,29.84,10.0,SW,8.1,16.1,N/A,,Overcast,220,2013-02-23 09:54:00
5:15 AM,29.8,21.2,70,29.85,10.0,SW,11.5,-,N/A,,Overcast,230,2013-02-23 10:15:00
5:35 AM,29.5,20.8,70,29.85,10.0,SW,9.2,-,N/A,,Overcast,230,2013-02-23 10:35:00
5:54 AM,29.3,20.5,70,29.85,10.0,SW,9.2,-,N/A,,Overcast,230,2013-02-23 10:54:00
6:15 AM,29.1,20.8,71,29.85,10.0,SW,9.2,-,N/A,,Overcast,230,2013-02-23 11:15:00
6:34 AM,28.9,20.8,72,29.85,10.0,SW,9.2,16.1,N/A,,Overcast,230,2013-02-23 11:34:00
6:55 AM,28.9,21.0,72,29.86,10.0,SW,9.2,-,N/A,,Overcast,230,2013-02-23 11:55:00
7:14 AM,28.8,21.2,73,29.86,10.0,SW,9.2,-,N/A,,Overcast,230,2013-02-23 12:14:00
7:34 AM,28.6,21.2,74,29.86,10.0,SW,9.2,16.1,N/A,Snow,Light Snow,220,2013-02-23 12:34:00
7:55 AM,28.4,21.2,74,29.87,7.0,SW,9.2,-,N/A,Snow,Light Snow,230,2013-02-23 12:55:00
8:14 AM,28.6,21.7,76,29.86,7.0,SSW,12.7,18.4,N/A,Snow,Light Snow,210,2013-02-23 13:14:00
8:35 AM,28.8,21.9,76,29.87,7.0,SW,10.4,18.4,N/A,Snow,Light Snow,230,2013-02-23 13:35:00
8:54 AM,28.9,22.1,76,29.87,5.0,SW,11.5,16.1,N/A,Snow,Light Snow,230,2013-02-23 13:54:00
9:14 AM,28.9,22.3,76,29.87,2.5,SW,13.8,-,N/A,Snow,Light Snow,220,2013-02-23 14:14:00
9:34 AM,29.1,22.6,77,29.86,3.0,SW,11.5,-,N/A,Snow,Light Snow,230,2013-02-23 14:34:00
9:54 AM,29.3,22.8,77,29.86,5.0,SW,11.5,18.4,N/A,Snow,Light Snow,230,2013-02-23 14:54:00
10:15 AM,29.7,22.5,75,29.86,5.0,SW,10.4,-,N/A,Snow,Light Snow,230,2013-02-23 15:15:00
11:15 AM,30.9,22.1,70,29.86,10.0,WSW,11.5,-,N/A,Snow,Light Snow,250,2013-02-23 16:15:00
11:34 AM,31.1,21.9,69,29.86,10.0,SW,11.5,-,N/A,,Overcast,230,2013-02-23 16:34:00
12:14 PM,31.3,20.3,64,29.86,10.0,WSW,11.5,17.3,N/A,,Overcast,240,2013-02-23 17:14:00
12:34 PM,32.0,19.9,61,29.85,10.0,WSW,13.8,19.6,N/A,,Overcast,250,2013-02-23 17:34:00
12:54 PM,32.0,19.6,60,29.85,10.0,WSW,12.7,18.4,N/A,,Overcast,240,2013-02-23 17:54:00
1:14 PM,32.0,19.2,59,29.86,10.0,WSW,12.7,-,N/A,,Overcast,250,2013-02-23 18:14:00
1:35 PM,31.1,19.2,61,29.85,10.0,WSW,11.5,-,N/A,,Overcast,250,2013-02-23 18:35:00
1:54 PM,31.3,19.0,61,29.85,10.0,WSW,12.7,-,N/A,,Overcast,250,2013-02-23 18:54:00
2:14 PM,31.1,19.2,61,29.84,10.0,West,8.1,-,N/A,,Overcast,260,2013-02-23 19:14:00
2:35 PM,31.6,18.5,58,29.85,10.0,WSW,9.2,-,N/A,,Overcast,250,2013-02-23 19:35:00
2:54 PM,31.8,18.7,58,29.85,10.0,WSW,10.4,-,N/A,,Overcast,240,2013-02-23 19:54:00
3:14 PM,31.1,18.7,60,29.84,10.0,WSW,9.2,18.4,N/A,,Overcast,250,2013-02-23 20:14:00
3:35 PM,31.1,18.9,61,29.84,10.0,West,11.5,-,N/A,,Overcast,260,2013-02-23 20:35:00
3:54 PM,30.9,19.8,63,29.85,10.0,West,12.7,-,N/A,,Overcast,260,2013-02-23 20:54:00
4:14 PM,30.7,19.4,63,29.85,10.0,WSW,11.5,-,N/A,,Overcast,250,2013-02-23 21:14:00
4:35 PM,30.2,19.6,65,29.85,10.0,West,9.2,-,N/A,,Overcast,260,2013-02-23 21:35:00
4:54 PM,30.2,19.9,66,29.85,10.0,WSW,10.4,-,N/A,,Overcast,250,2013-02-23 21:54:00
5:14 PM,29.7,19.4,66,29.85,10.0,WSW,8.1,-,N/A,,Overcast,240,2013-02-23 22:14:00
5:35 PM,28.9,21.0,72,29.86,5.0,West,9.2,-,N/A,Snow,Light Snow,270,2013-02-23 22:35:00
5:54 PM,28.6,21.9,76,29.87,4.0,WSW,5.8,-,N/A,Snow,Light Snow,250,2013-02-23 22:54:00
6:15 PM,28.0,22.5,80,29.88,2.0,WSW,9.2,-,N/A,Snow,Light Snow,250,2013-02-23 23:15:00
6:34 PM,27.5,21.7,79,29.88,5.0,West,9.2,-,N/A,Snow,Light Snow,260,2013-02-23 23:34:00
6:54 PM,27.5,21.2,77,29.88,10.0,WSW,8.1,-,N/A,Snow,Light Snow,250,2013-02-23 23:54:00
7:15 PM,27.1,20.3,75,29.89,10.0,WSW,9.2,-,N/A,Snow,Light Snow,250,2013-02-24 00:15:00
7:34 PM,27.0,20.5,77,29.89,10.0,WSW,9.2,-,N/A,Snow,Light Snow,240,2013-02-24 00:34:00
7:55 PM,27.0,20.3,76,29.89,10.0,WSW,5.8,-,N/A,,Overcast,240,2013-02-24 00:55:00
8:14 PM,26.6,20.1,77,29.89,10.0,WSW,6.9,-,N/A,Snow,Light Snow,250,2013-02-24 01:14:00
8:34 PM,27.0,20.1,75,29.89,10.0,WSW,6.9,-,N/A,Snow,Light Snow,250,2013-02-24 01:34:00
8:55 PM,26.8,19.9,75,29.89,10.0,WSW,6.9,-,N/A,,Overcast,240,2013-02-24 01:55:00
9:14 PM,26.6,20.1,77,29.89,10.0,WSW,6.9,-,N/A,,Overcast,240,2013-02-24 02:14:00
9:34 PM,26.6,20.5,78,29.89,10.0,SW,5.8,-,N/A,,Overcast,230,2013-02-24 02:34:00
9:55 PM,26.4,20.7,79,29.89,10.0,WSW,8.1,-,N/A,,Overcast,240,2013-02-24 02:55:00
10:14 PM,26.2,19.6,76,29.88,10.0,WSW,8.1,-,N/A,,Overcast,250,2013-02-24 03:14:00
10:34 PM,25.5,19.0,76,29.87,10.0,SW,6.9,-,N/A,,Overcast,230,2013-02-24 03:34:00
10:55 PM,24.4,18.3,78,29.87,10.0,WSW,5.8,-,N/A,,Mostly Cloudy,250,2013-02-24 03:55:00
11:34 PM,23.5,18.0,79,29.86,10.0,WSW,5.8,-,N/A,,Clear,240,2013-02-24 04:34:00
11:55 PM,22.8,17.4,80,29.86,10.0,SW,4.6,-,N/A,,Scattered Clouds,230,2013-02-24 04:55:00